Вернуться в каталог

ARVAKER-1

АктивенНаукаSSO
NORAD 63252·PAYLOAD·🇳🇴 Norway

Запущен Mar 15, 2025 с Vandenberg Space Force Base

Loading…

Ближайшие Пролёты (ближайшие 24 часа)

TLE

СвежийSource: Space-Track

Эпоха: Sep 14, 2026, 15:40 UTC

1 63252U 25052AU  26257.65331626  .00001778  00000-0  16837-3 0  9997
2 63252  97.6734 146.9698 0001027 311.6226  48.4906 14.94850356 81971

Отслеживайте ARVAKER-1 в реальном времени с AllMySat

Download on the App Store